Showing default

TOPO 1, 4363

Orbit data source: Space-Track

TOPO 1, 4363 is a payload satellite owned by USA ETL (US) in SSO that was launched on Wed, 08 Apr 1970 UTC via a THORAD SLV-2G AGENA D launch vehicle from the Air Force Western Test Range (AFWTR). Payload-class satellites include a variety of spacecraft equipped with specific instruments for various scientific and technological missions. These include communications satellites like Starlink; space stations such as the ISS; scientific satellites like the Hubble; Earth observation satellites from companies like Planet Labs, Umbra, and HawkEye 360; GPS; miniature CubeSats for education and research; and military/defense satellites.

Loading next visibility...
Identifier
4363, 1970-025B
Orbit
SSO
Country
Flag of USUS
Related business
Manufacturer
ITT
Mission
Spacecraft
Bus & Motor
SECOR, Unknown motor
Mass
18 kg wet, 18 kg dry
Launch date (UTC)
1970-04-08 (56 years ago)
Launch vehicle
THORAD SLV-2G AGENA D
Launch site
Air Force Western Test Range (AFWTR)
Object type
Payload
Rocket body
Debris
Shape & HBR
BOX, 0.3 m
Radar Cross Section
Medium (>0.1 m² and <1 m²)

Expand to show TLE details & history
Last TLE update: 18 hours ago

TLE from 18 hours ago
0 TOPO 1
1 04363U 70025B   26237.70886343 -.00000031  00000-0  21519-4 0  9996
2 04363  99.8809 150.6208 0001946 162.5268 226.0618 13.46701385770550
Epoch: 2026-08-25T17:00Z
TLE epoch observation values (Epoch: 2026-08-25T17:00:45.800Z)
Latitude
28.15362°
Longitude
-83.86346°
Altitude
1,088.772 km
Speed
7.31 km/s
True Right ascension
09h 41m 11s
True Declination
28° 01' 02"
Sunlit
Object was in daylight at epoch
Visualization orbit readout
Latitude
Unknown
Longitude
Unknown
Altitude
Unknown
Speed
Unknown
Apparent Right ascension
Unknown
Apparent Declination
Unknown
Sunlit
N/A
Visualization observer readout
Local Sidereal Time
02:31:40
Azimuth
Unknown
Elevation
Unknown
Doppler factor
Unknown
Orbital elements
Apogee altitude
1,083.186 km
Perigee altitude
1,080.283 km
Semi-major axis
7,459.872 km
Eccentricity
0.00019
Inclination
99.8809°
RAAN
150.6208°
Arg. of periapsis
162.5268°
True anomaly
226.04575°
Mean anomaly
226.0618°
Eccentric anomaly
226.05377°
Mean motion
3.36857 °/min
Orbital period
106.87 mins
BSTAR
0.000021519
Loading maneuver chart data...
Computing Atmospheric mass density...

Documentation

Showing up to 5 results
|